Theta_e
303 302 301 301 301 302 301 302 303 301 301 303 305 306 308 308 307 305 311 311 311 311 312 311 317 319 320 318 317 318 320 321 321 321 322 323 323 321 321 321 321 321 324 326 334
300 299 299 299 299 299 299 299 299 299 300 300 300 301 305 307 309 310 312 311 311 310 308 311 317 319 319 318 317 319 321 320 320 321 322 322 322 322 322 322 322 321 324 329 331
303 302 301 299 298 298 298 298 298 299 299 299 300 300 302 304 311 316 314 313 312 314 314 309 315 319 319 318 318 319 320 320 320 320 321 321 321 321 322 321 322 322 325 326 332
301 302 301 299 298 297 298 298 298 298 299 299 299 300 300 303 316 312 311 310 307 306 315 313 313 317 320 319 318 318 318 319 319 319 320 320 320 321 320 322 321 321 324 326 328
301 302 299 298 297 297 297 298 298 298 298 299 299 300 300 308 312 312 313 310 309 317 316 316 316 317 319 319 318 318 318 318 318 319 319 319 320 320 320 320 320 321 328 329 329
302 302 303 304 300 298 297 298 298 298 298 299 299 300 304 308 309 312 311 308 307 312 319 316 317 318 318 319 319 318 318 318 319 319 319 319 320 319 320 320 320 321 326 330 330
301 303 302 301 302 300 297 297 297 298 298 299 299 301 308 305 306 308 311 310 308 308 310 318 317 317 318 319 318 318 319 319 319 319 320 319 319 319 319 320 320 320 324 329 330
300 301 301 300 300 298 296 297 297 298 299 300 300 304 309 306 308 309 311 312 312 309 308 308 313 316 318 318 319 319 319 319 319 319 320 320 320 320 320 321 321 322 324 329 330
299 300 302 300 298 297 296 296 297 304 305 305 304 311 312 310 310 310 310 310 311 311 309 310 310 315 317 319 319 319 319 319 319 320 321 321 321 321 321 323 323 324 326 328 330
300 299 300 301 299 296 296 298 304 307 310 310 312 312 312 311 311 311 312 315 314 313 312 310 310 315 317 319 322 319 319 319 321 322 322 322 321 321 323 324 324 324 324 328 330
300 299 300 300 299 296 302 308 308 310 312 310 310 312 310 311 308 309 312 313 315 315 315 310 313 316 317 318 319 320 320 320 321 322 323 323 321 321 322 322 325 325 325 327 330
299 299 300 299 298 297 306 308 307 306 307 307 307 307 307 307 308 308 310 314 315 317 317 315 313 315 314 318 318 319 320 321 322 322 322 322 322 321 321 322 323 324 325 326 330
298 299 299 299 296 304 308 307 306 308 308 308 309 309 310 310 310 310 308 312 315 316 317 319 317 313 312 314 319 319 320 321 321 321 322 321 321 322 322 322 322 323 324 326 330
298 299 298 298 300 305 306 307 307 307 310 313 312 312 312 311 312 309 309 311 316 316 316 317 317 314 314 316 316 319 320 321 321 322 323 323 323 323 323 323 323 323 323 323 326
297 298 299 298 298 301 304 306 307 307 314 313 312 312 312 312 312 311 309 310 315 314 315 317 317 316 316 317 317 318 321 322 321 322 323 321 322 322 322 324 323 324 324 324 323
298 297 298 298 301 303 304 305 307 312 313 311 313 314 314 314 313 312 310 311 313 313 314 314 314 313 316 317 317 318 319 322 323 323 324 322 323 323 324 324 324 324 322 324 325
298 297 296 299 300 303 305 306 311 311 308 308 310 312 312 311 310 313 312 311 312 314 314 314 314 314 314 316 317 317 322 325 325 324 325 322 322 324 324 323 322 322 322 324 326
298 296 297 298 299 301 303 306 311 308 309 309 310 308 309 308 309 314 313 313 311 313 313 316 319 315 316 316 318 317 321 323 326 327 324 322 323 325 325 323 323 323 323 324 325
296 297 298 299 299 301 303 306 307 307 307 307 307 308 309 308 311 312 315 314 313 312 313 316 317 316 316 316 317 319 319 319 323 325 329 326 324 325 324 323 323 322 323 323 324
297 298 299 299 299 301 304 305 307 307 307 309 308 308 306 309 312 313 315 315 315 313 312 313 317 315 316 316 317 318 318 322 322 325 331 330 327 326 325 324 322 323 325 325 325
297 299 298 299 300 301 304 305 305 305 306 306 307 308 308 308 310 311 314 314 312 312 311 312 314 316 315 319 320 319 319 320 321 322 329 332 329 327 326 324 323 325 324 325 327
296 300 299 301 302 302 303 304 305 306 305 306 306 307 308 309 310 311 312 314 310 310 312 313 314 315 314 314 318 319 319 319 324 324 322 328 329 327 326 325 325 324 323 323 324
298 298 298 302 303 304 303 304 304 305 305 305 306 306 306 306 308 309 311 312 310 312 310 309 315 314 315 316 319 320 319 319 320 324 326 331 325 325 324 323 322 323 323 323 323
298 300 298 302 302 304 303 305 304 304 304 305 306 306 307 306 307 310 312 312 310 309 308 310 312 316 318 319 318 322 320 320 322 325 327 328 326 325 324 322 322 322 321 322 323
297 299 301 302 303 303 304 306 305 305 304 304 305 305 306 308 307 309 309 310 310 308 309 311 316 317 317 316 319 321 321 320 322 323 325 324 325 324 321 322 322 320 320 321 321
297 298 298 301 302 303 303 303 304 305 306 305 306 305 305 306 306 307 307 308 311 310 310 310 313 312 314 315 318 321 320 320 321 322 322 321 322 321 321 320 322 322 322 321 321
296 297 298 300 302 302 305 304 303 304 304 305 306 307 307 307 307 308 308 309 310 310 310 309 311 315 315 317 319 320 320 320 319 319 320 323 322 321 321 320 321 321 320 320 320
Wind_Speed
15 16 17 17 17 18 19 19 21 21 22 22 21 21 23 25 27 24 21 20 20 24 18 15 11 19 20 25 26 25 14 16 22 23 21 11 6 5 10 11 13 14 13 11 7
16 16 16 18 18 18 19 20 21 20 20 21 22 24 21 23 27 29 21 25 22 24 26 15 19 20 26 27 28 20 16 23 21 23 20 14 12 11 15 12 15 15 9 7 5
16 15 16 16 18 18 19 20 20 20 21 22 23 24 21 22 24 3 1 6 9 14 18 19 21 22 27 29 30 28 23 21 24 30 20 11 22 9 10 13 14 12 2 2 8
16 19 19 18 18 18 19 20 20 19 20 22 22 23 21 15 7 6 15 22 19 16 9 15 23 29 23 24 31 24 31 29 28 29 30 13 22 13 19 14 14 18 5 5 9
17 17 19 19 19 20 21 21 21 21 21 22 23 24 22 7 26 17 26 18 14 8 9 15 22 27 24 24 28 27 25 30 30 30 25 27 17 17 22 19 20 18 5 5 11
18 15 16 21 22 22 22 23 23 22 21 21 22 21 14 17 9 11 12 12 10 11 12 15 22 24 30 28 24 30 29 29 30 27 26 22 18 22 24 24 27 20 10 9 13
20 19 19 20 23 24 24 24 24 23 22 22 21 17 15 34 15 19 17 17 14 14 14 14 18 24 23 24 31 32 26 22 22 23 22 29 22 21 26 27 25 22 12 12 14
23 20 21 22 24 25 24 25 23 21 21 19 16 9 13 16 15 19 17 20 21 17 17 17 18 20 21 28 26 24 22 21 22 22 23 21 20 20 27 29 24 12 14 14 14
22 21 22 23 24 25 25 25 18 16 16 15 9 6 12 7 8 8 9 12 14 17 14 12 16 15 18 17 16 17 19 23 24 23 21 24 23 19 26 6 8 15 18 16 13
22 22 20 23 23 22 24 23 12 15 9 7 10 9 18 9 5 10 8 5 9 13 12 12 12 12 17 15 17 19 21 21 22 20 24 16 15 13 21 17 17 17 18 19 16
21 20 19 23 22 18 18 23 9 2 9 17 12 16 31 21 23 16 13 9 9 9 14 9 12 18 23 21 22 20 22 23 21 20 18 18 16 16 17 19 16 17 16 17 20
22 17 20 21 18 12 8 10 7 10 16 25 29 29 26 25 26 25 11 7 13 13 14 9 21 19 21 21 22 22 24 25 23 12 8 11 13 15 16 15 17 21 19 19 21
20 18 19 19 13 5 8 11 10 13 8 18 10 12 9 8 15 19 20 14 14 13 13 19 16 17 22 28 24 22 23 22 24 20 18 9 16 17 20 19 22 19 15 18 24
18 18 18 17 11 7 10 4 10 12 5 7 10 6 7 3 6 4 18 16 2 8 10 8 15 18 18 29 23 22 21 25 24 18 14 15 13 16 19 18 16 19 18 15 15
18 18 16 13 15 12 12 11 10 8 5 11 11 7 5 7 7 6 11 17 11 7 5 5 10 21 24 25 21 23 15 23 21 18 17 19 11 13 13 14 17 18 22 23 19
18 18 18 13 14 10 13 9 7 4 8 9 10 9 11 17 13 9 12 9 3 10 14 15 15 9 13 22 20 17 18 23 21 15 16 18 16 14 14 13 15 13 13 24 21
17 19 21 14 18 11 3 9 5 6 3 9 7 3 6 10 12 12 11 14 8 4 10 14 25 18 20 20 16 22 10 8 8 13 12 15 13 14 16 6 7 4 6 18 21
18 18 19 18 15 13 8 5 10 8 15 0 5 7 13 15 13 5 11 12 16 10 8 5 4 18 11 19 11 17 20 9 7 8 12 18 10 18 18 13 12 5 8 16 17
16 18 21 17 15 15 12 10 6 15 16 14 9 7 16 15 5 9 16 13 9 15 7 4 5 6 17 10 8 12 19 25 13 9 6 9 17 3 6 6 8 10 13 14 15
15 18 25 18 17 19 10 17 18 14 10 6 6 7 12 12 3 1 1 2 3 4 12 4 8 12 17 15 19 22 19 15 10 7 6 5 16 8 15 12 11 5 4 2 9
15 10 15 18 21 15 11 18 18 27 19 8 9 14 16 11 11 7 2 6 4 3 5 7 7 3 7 7 18 11 15 14 12 13 6 4 6 8 11 7 11 9 9 5 3
20 6 12 25 13 5 10 18 25 18 13 13 12 13 15 16 12 10 9 6 7 5 3 5 5 9 19 16 20 17 20 18 9 19 12 6 1 8 5 6 9 7 8 10 3
9 18 19 16 8 13 14 22 23 21 19 13 16 15 16 16 15 9 14 10 7 4 5 6 5 6 9 10 16 16 19 19 12 10 8 4 5 4 7 6 4 3 11 4 8
4 4 19 16 18 14 18 18 19 26 20 19 16 17 13 16 17 7 5 7 8 4 8 5 6 9 10 9 8 14 22 22 17 4 7 7 7 5 9 2 0 1 11 17 10
6 6 6 8 12 16 18 7 16 18 19 19 15 19 16 15 14 16 18 11 11 9 3 3 5 8 13 16 16 14 16 21 22 19 15 11 16 12 15 14 6 14 11 9 14
5 6 14 9 14 16 17 18 19 14 17 16 16 18 19 17 14 14 15 10 6 8 3 3 4 11 10 15 15 16 12 14 11 15 15 11 6 8 6 10 16 21 22 20 20
19 16 13 9 10 11 10 19 19 18 15 22 10 16 12 12 7 8 16 4 13 7 5 3 1 4 4 13 7 9 12 10 10 10 8 9 4 7 4 6 16 19 18 18 18
Wind_Direction
312 314 310 311 315 315 316 315 318 321 316 316 324 332 322 313 305 300 286 273 263 271 277 262 244 223 227 229 232 232 246 252 257 262 264 259 164 187 270 270 283 277 221 235 162
320 313 312 309 313 316 316 316 319 325 325 325 321 320 325 329 310 297 278 263 268 264 263 248 232 223 229 233 233 230 242 243 255 272 286 312 283 199 227 241 252 269 236 177 193
324 321 317 314 313 314 316 316 319 321 320 320 324 328 327 327 318 184 32 296 302 316 255 235 239 229 232 234 231 235 239 249 260 264 319 294 291 251 264 267 273 293 331 259 199
316 321 319 314 313 311 311 313 316 319 318 319 321 320 324 324 292 322 304 309 291 300 267 234 237 238 236 237 237 241 245 243 254 270 284 277 270 280 279 289 299 275 236 245 244
310 319 320 318 313 312 311 314 317 317 318 317 316 316 322 285 259 289 295 298 325 323 246 232 233 238 242 238 245 244 248 249 254 260 268 274 264 267 270 272 274 276 192 223 232
310 308 313 312 314 312 312 315 317 315 314 311 307 306 301 265 291 299 293 277 283 269 264 234 233 242 250 253 248 255 251 252 255 254 265 265 259 262 257 261 262 254 204 215 224
310 309 301 306 310 311 314 314 316 314 310 303 299 297 259 252 266 275 276 268 267 272 282 250 242 249 250 253 257 254 268 273 259 246 252 259 254 250 258 256 248 246 231 220 213
309 303 307 302 307 311 313 313 315 311 308 298 294 278 257 291 278 275 278 267 254 257 260 270 278 287 284 267 267 259 258 258 253 250 247 242 259 259 256 241 226 217 230 213 216
302 301 307 306 304 311 313 314 314 312 310 302 287 220 269 292 248 284 281 265 251 252 244 259 260 275 281 262 259 253 252 248 248 248 249 228 237 242 250 227 239 238 213 202 209
305 302 303 310 309 316 322 323 314 289 293 282 257 262 245 243 313 300 279 284 248 239 239 242 230 233 241 246 233 237 240 244 263 251 230 236 240 249 262 208 221 237 254 193 192
299 310 303 308 314 327 343 358 12 220 268 253 256 246 279 267 301 284 274 249 246 236 231 212 228 215 229 233 249 253 264 273 245 234 245 208 235 254 248 229 203 220 227 209 185
303 302 307 309 317 331 333 317 342 309 298 277 261 263 263 270 273 255 260 241 233 246 240 208 231 222 261 249 240 249 263 268 273 266 248 263 246 264 260 256 224 202 206 223 177
296 292 304 312 317 335 320 304 315 319 275 294 235 243 241 245 253 265 227 231 252 246 253 244 263 227 254 257 243 241 243 255 267 279 285 223 263 261 262 256 235 228 205 214 176
291 296 300 311 308 317 302 331 320 317 283 188 192 187 199 235 243 278 213 216 151 272 269 279 272 240 257 276 240 247 241 255 258 265 260 239 258 270 235 224 231 231 186 218 205
283 289 297 296 292 299 314 329 312 302 289 151 134 138 181 234 320 125 196 205 219 194 169 232 306 223 241 261 241 255 266 291 267 252 264 265 269 266 271 255 221 206 200 195 213
278 288 283 286 287 303 289 303 294 230 241 160 148 178 198 215 221 130 186 220 217 260 234 255 242 294 250 263 287 254 253 273 273 259 241 241 254 261 267 275 219 188 190 180 187
273 287 272 268 261 292 269 283 222 237 167 209 174 176 260 278 283 170 175 196 205 203 248 287 252 226 261 285 283 255 211 243 236 235 241 238 243 243 261 141 100 141 181 164 176
268 277 272 260 260 274 267 246 242 247 222 315 155 286 286 287 276 179 185 216 212 216 290 299 262 210 248 227 231 273 214 232 199 218 229 226 235 244 221 189 151 140 208 167 176
277 275 266 254 237 231 238 216 231 229 269 287 257 280 271 257 186 274 210 233 220 200 213 300 267 184 218 252 255 250 221 248 252 308 284 238 215 142 139 120 136 174 199 226 187
272 267 264 240 229 224 231 233 234 266 296 308 258 288 286 286 157 322 155 172 176 309 215 295 285 228 223 230 262 261 219 248 220 247 235 282 184 229 174 192 189 152 130 56 178
257 261 257 224 209 212 226 227 236 269 281 267 257 266 277 275 294 287 26 33 34 10 275 251 224 183 30 225 230 253 231 244 264 243 216 177 220 142 252 132 145 106 90 104 140
244 233 259 187 190 209 228 227 252 268 272 259 272 286 289 300 297 294 293 139 154 25 321 306 249 253 257 262 244 217 251 227 247 223 255 272 260 310 237 149 108 91 117 117 144
222 230 256 206 202 221 230 235 246 260 257 256 268 240 255 266 272 271 275 142 166 135 17 348 253 262 293 224 230 234 219 244 254 288 253 282 213 256 77 67 64 135 41 112 144
256 221 238 219 236 248 229 230 241 240 250 269 261 270 266 248 251 242 253 162 181 148 154 323 265 271 257 307 318 217 209 223 229 218 214 219 255 87 229 215 129 86 22 18 21
235 234 240 211 219 238 252 267 246 240 226 239 251 259 257 252 247 268 260 257 196 174 162 100 277 329 298 307 293 276 243 211 233 231 220 208 233 214 54 289 40 36 38 352 334
216 228 264 271 270 238 233 248 255 252 257 244 233 238 245 252 257 254 272 276 308 191 163 162 289 330 295 283 267 286 252 209 245 231 260 261 234 356 155 16 45 41 48 36 25
230 257 284 283 294 247 244 242 241 256 252 263 234 278 287 296 302 292 267 245 273 266 246 226 1 339 288 328 265 256 213 228 250 233 220 275 63 268 46 50 65 54 48 43 27